Regional Weather Roundup
Issued by NWS Newport/Morehead, NC

Current Version | Previous Version | Graphics & Text | Print | Product List | Glossary Off
Versions: 1 2 3 4 5 6 7 8 9 10 11 12 13 14 15 16 17 18 19 20 21 22 23 24 25 26 27 28 29 30 31 32 33 34 35 36 37 38 39 40 41 42 43 44 45 46 47 48 49 50
000 ASUS42 KMHX 010610 RWRMHX WEATHER ROUNDUP FOR EASTERN NORTH CAROLINA NATIONAL WEATHER SERVICE NEWPORT/MOREHEAD CITY NC 100 AM EST SUN FEB 01 2015 NOTE: "FAIR" INDICATES FEW OR NO CLOUDS BELOW 12,000 FEET WITH NO SIGNIFICANT WEATHER AND/OR OBSTRUCTIONS TO VISIBILITY NCZ015>017-031-032-045>047-102-103-010700- NORTH COAST CITY SKY/WX TMP DP RH WIND PRES REMARKS EDENTON CLEAR 32 21 65 SW5 30.29F ELIZABETH CITY CLEAR 30 21 69 SW5 30.28F KITTY HAWK CLEAR 34 22 61 SW5 30.27F MANTEO CLEAR 34 23 64 W3 30.29F $$ NCZ045>047-081-094-103-104-010700- CENTRAL COAST CITY SKY/WX TMP DP RH WIND PRES REMARKS FRISCO CLEAR 30 25 81 W5 30.30F SWANQUARTER N/A 37 N/A N/A SW6 30.27S $$ NCZ095-097-098-100-101-010700- SOUTHERN COAST CITY SKY/WX TMP DP RH WIND PRES REMARKS BEAUFORT CLEAR 29 22 75 CALM 30.31F CEDAR ISLAND N/A 32 N/A N/A S2 30.33S JACKSONVILLE CLEAR 36 23 59 SW5 30.31F PINEY ISLAND N/A N/A N/A N/A MISG 30.31S WILMINGTON CLEAR 31 26 82 CALM 30.32F $$ NCZ011>013-027>030-043-044-078>080-089-090>093-098-010700- COASTAL PLAIN CITY SKY/WX TMP DP RH WIND PRES REMARKS AHOSKIE CLEAR 25 18 75 CALM 30.28F CLINTON PTCLDY 35 20 56 CALM 30.31S ELIZABETHTOWN CLEAR 34 22 63 S3 30.31S GOLDSBORO CLOUDY 35 19 50 CALM 30.28S GREENVILLE CLEAR 32 21 64 CALM 30.30S HAVELOCK CLEAR 27 23 85 CALM 30.32F KENANSVILLE CLEAR 31 22 71 CALM 30.31S KINSTON PTCLDY 33 20 57 S3 30.30F NEW BERN CLEAR 32 23 69 SW5 30.32S RICHLANDS CLEAR 28 21 74 CALM 30.31F ROCKY MOUNT PTCLDY 30 22 72 S3 30.28F WASHINGTON CLEAR 31 17 58 SW3 30.31R WHITEVILLE CLEAR 34 25 67 CALM 30.31F $$ AMZ130-135-150-152-154-156-158-170-250-252-270-ANZ085-086-088-633-658-670-010700- MARINE OBSERVATIONS STATION/POSITION TIME TEMP WIND PRES WAVE SWELL AIR SEA DIR/SP/G HT/PER HT/PER (UTC) (F) (DEG/KT/KT) (MB) (FT/S) (FT/S) CHESAPEAKE LIGHT 0500 38 220/ 5/ 5 1026.1 64 E VA BEACH 0600 41 47 280/ 10/ 12 1025.0 5/ 8 5/ 8 DUCK 0600 36 39 220/ 6/ 7 1024.4 2 E DUCK 0600 41 N/A 3/ 8 10 NE DUCK 0600 43 N/A 4/ 8 OREGON INLET 0600 37 39 220/ 7/ 8 1025.5 13E OREGON INLT 0600 45 N/A 5/ 9 2/11 HATTERAS CG 0600 39 42 260/ 3/ 4 1026.1 DIAMOND BUOY 0600 47 71 290/ 12/ 16 1025.9 7/12 7/12 17 S OCRACOKE NOT AVBL CAPE LOOKOUT 0500 44 250/ 4/ 4 1026.6 BEAUFORT LAB 0600 36 45 CALM 1025.2 27 SE WRIGHTSVLE NOT AVBL 5 SE WRIGHTSVLE 0500 48 51 250/ 10/ 12 1026.8 225 S CAPE HAT 0500 56 70 360/ 10/ 16 1026.4 10/11 10/11 41 SE CHARLESTON 0600 54 69 160/ 4/ 6 1026.6 5/10 5/10 $$

USA.gov is the U.S. government's official web portal to all federal, state and local government web resources and services.